Location: Columbia
(38.9520°N, 92.3340°W)
Time: 00:22:15
(UTC-05:00)

Cosmos 1603 - Visible Passes

Search period start: 25 May 2015 00:00
Search period end: 04 June 2015 00:00
Orbit: 829 x 861 km, 71.0° (Epoch: 24 May)

Date Brightness Start Highest point End Pass type
(mag) Time Alt. Az. Time Alt. Az. Time Alt. Az.
25 May 4.0 01:14:23 60° ENE 01:14:23 60° ENE 01:19:14 10° NNE visible
25 May 5.6 02:56:15 16° WNW 02:58:19 18° NW 03:02:05 10° N visible
26 May 4.0 01:00:33 58° ENE 01:00:33 58° ENE 01:05:21 10° NNE visible
26 May 5.6 02:42:25 16° WNW 02:44:24 19° NW 02:48:16 10° N visible
27 May 4.1 00:46:42 56° ENE 00:46:42 56° ENE 00:51:29 10° NNE visible
27 May 5.6 02:28:33 17° WNW 02:30:30 19° NW 02:34:27 10° N visible
28 May 4.1 00:32:47 56° ENE 00:32:47 56° ENE 00:37:36 10° NNE visible
28 May 5.6 02:14:39 17° WNW 02:16:36 20° NW 02:20:38 10° N visible
29 May 4.0 00:18:50 55° ENE 00:18:50 55° ENE 00:23:43 10° NNE visible
29 May 5.6 02:00:41 17° W 02:02:43 20° NW 02:06:49 10° N visible
30 May 4.0 00:04:49 55° E 00:04:49 55° E 00:09:50 10° NNE visible
30 May 5.6 01:46:40 17° W 01:48:49 21° NW 01:53:00 10° N visible
30 May 3.9 23:50:46 55° E 23:50:46 55° E 23:55:57 10° NNE visible
31 May 5.6 01:32:36 17° W 01:34:55 21° NW 01:39:10 10° N visible
31 May 3.9 23:36:37 55° E 23:36:37 55° E 23:42:04 10° NNE visible
01 Jun 5.6 01:18:28 17° W 01:21:01 22° NW 01:25:21 10° N visible
01 Jun 3.8 23:22:25 53° ESE 23:22:34 53° ESE 23:28:11 10° NNE visible
02 Jun 5.7 01:04:15 16° W 01:07:07 23° NW 01:11:31 10° N visible
02 Jun 3.8 23:08:06 49° SE 23:08:43 52° ESE 23:14:18 10° NNE visible
03 Jun 5.7 00:49:56 15° W 00:53:14 23° NW 00:57:42 10° N visible
03 Jun 3.9 22:53:40 43° SE 22:54:51 50° ESE 23:00:24 10° NNE visible
